Weather reports worldwide

Advertisment
Capo Frasca, Italy (16539): temperature & dewpoint: 01.08.2020 03:00:00 - 07.08.2020 03:00:00 (CEST)Capo Frasca, Italy (16539): wind speed: 01.08.2020 03:00:00 - 07.08.2020 03:00:00 (CEST)Capo Frasca, Italy (16539): wind direction: 01.08.2020 03:00:00 - 07.08.2020 03:00:00 (CEST)Capo Frasca, Italy (16539): reduced air pressure: 01.08.2020 03:00:00 - 07.08.2020 03:00:00 (CEST)Capo Frasca, Italy (16539): visibility: 01.08.2020 03:00:00 - 07.08.2020 03:00:00 (CEST)
Date & Time tt [°C] td [°C] ff [km/h] ff [kn] dd ppp [hPa] vv [km]
07.08.2020 03:00:00 - - - - - - -
07.08.2020 02:00:00 - - - - - - -
07.08.2020 01:00:00 - - - - - - -
07.08.2020 00:00:00 - - - - - - -
06.08.2020 23:00:00 - - - - - - -
06.08.2020 22:00:00 - - - - - - -
06.08.2020 21:00:00 - - - - - - -
06.08.2020 20:00:00 24,4 19,9 28 15 NW 1013,9 25
06.08.2020 19:00:00 - - - - - - -
06.08.2020 18:00:00 - - - - - - -
06.08.2020 17:00:00 25,2 21,7 24 13 WNW 1014,2 25
06.08.2020 16:00:00 - - - - - - -
06.08.2020 15:00:00 - - - - - - -
06.08.2020 14:00:00 25,4 21,5 5 3 WNW 1014,5 25
06.08.2020 13:00:00 - - - - - - -
06.08.2020 12:00:00 - - - - - - -
06.08.2020 11:00:00 23,2 18,3 9 5 NW 1014,5 25
06.08.2020 10:00:00 - - - - - - -
06.08.2020 09:00:00 - - - - - - -
06.08.2020 08:00:00 19,4 18,2 5 3 ENE 1014,2 25
06.08.2020 07:00:00 - - - - - - -
06.08.2020 06:00:00 - - - - - - -
06.08.2020 05:00:00 - - - - - - -
06.08.2020 04:00:00 - - - - - - -
06.08.2020 03:00:00 - - - - - - -
06.08.2020 02:00:00 - - - - - - -
06.08.2020 01:00:00 - - - - - - -
06.08.2020 00:00:00 - - - - - - -
05.08.2020 23:00:00 - - - - - - -
05.08.2020 22:00:00 - - - - - - -
05.08.2020 21:00:00 - - - - - - -
05.08.2020 20:00:00 23,0 18,8 11 6 W 1011,3 20
05.08.2020 19:00:00 - - - - - - -
05.08.2020 18:00:00 - - - - - - -
05.08.2020 17:00:00 24,0 17,7 11 6 WNW 1011,7 20
05.08.2020 16:00:00 - - - - - - -
05.08.2020 15:00:00 - - - - - - -
05.08.2020 14:00:00 25,0 16,7 16 9 WNW 1012,0 20
05.08.2020 13:00:00 - - - - - - -
05.08.2020 12:00:00 - - - - - - -
05.08.2020 11:00:00 23,8 18,5 16 9 WNW 1011,8 20
05.08.2020 10:00:00 - - - - - - -
05.08.2020 09:00:00 - - - - - - -
05.08.2020 08:00:00 21,8 18,8 16 9 NW 1011,1 20
05.08.2020 07:00:00 - - - - - - -
05.08.2020 06:00:00 - - - - - - -
05.08.2020 05:00:00 - - - - - - -
05.08.2020 04:00:00 - - - - - - -
05.08.2020 03:00:00 - - - - - - -
05.08.2020 02:00:00 - - - - - - -
05.08.2020 01:00:00 - - - - - - -
05.08.2020 00:00:00 - - - - - - -
04.08.2020 23:00:00 - - - - - - -
04.08.2020 22:00:00 - - - - - - -
04.08.2020 21:00:00 - - - - - - -
04.08.2020 20:00:00 21,8 16,5 22 12 WNW 1011,1 20
04.08.2020 19:00:00 - - - - - - -
04.08.2020 18:00:00 - - - - - - -
04.08.2020 17:00:00 24,0 15,8 29 16 WNW 1010,6 25
04.08.2020 16:00:00 - - - - - - -
04.08.2020 15:00:00 - - - - - - -
04.08.2020 14:00:00 23,2 16,5 21 11 W 1011,8 25
04.08.2020 13:00:00 - - - - - - -
04.08.2020 12:00:00 - - - - - - -
04.08.2020 11:00:00 23,6 16,9 29 16 WNW 1011,7 20
04.08.2020 10:00:00 - - - - - - -
04.08.2020 09:00:00 - - - - - - -
04.08.2020 08:00:00 22,2 17,1 22 12 NW 1010,5 20
04.08.2020 07:00:00 - - - - - - -
04.08.2020 06:00:00 - - - - - - -
04.08.2020 05:00:00 - - - - - - -
04.08.2020 04:00:00 - - - - - - -
04.08.2020 03:00:00 - - - - - - -
04.08.2020 02:00:00 - - - - - - -
04.08.2020 01:00:00 - - - - - - -
04.08.2020 00:00:00 - - - - - - -
03.08.2020 23:00:00 - - - - - - -
03.08.2020 22:00:00 - - - - - - -
03.08.2020 21:00:00 - - - - - - -
03.08.2020 20:00:00 23,6 21,7 21 11 NNW 1009,3 20
03.08.2020 19:00:00 - - - - - - -
03.08.2020 18:00:00 - - - - - - -
03.08.2020 17:00:00 24,2 21,3 16 9 WNW 1009,6 20
03.08.2020 16:00:00 - - - - - - -
03.08.2020 15:00:00 - - - - - - -
03.08.2020 14:00:00 25,0 22,5 13 7 NW 1010,4 20
03.08.2020 13:00:00 - - - - - - -
03.08.2020 12:00:00 - - - - - - -
03.08.2020 11:00:00 25,2 22,5 11 6 WNW 1010,3 20
03.08.2020 10:00:00 - - - - - - -
03.08.2020 09:00:00 - - - - - - -
03.08.2020 08:00:00 23,0 22,3 4 2 NW 1010,0 20
03.08.2020 07:00:00 - - - - - - -
03.08.2020 06:00:00 - - - - - - -
03.08.2020 05:00:00 - - - - - - -
03.08.2020 04:00:00 - - - - - - -
03.08.2020 03:00:00 - - - - - - -
03.08.2020 02:00:00 - - - - - - -
03.08.2020 01:00:00 - - - - - - -
03.08.2020 00:00:00 - - - - - - -
02.08.2020 23:00:00 - - - - - - -
02.08.2020 22:00:00 - - - - - - -
02.08.2020 21:00:00 - - - - - - -
02.08.2020 20:00:00 25,4 24,4 11 6 NW 1010,3 18
02.08.2020 19:00:00 - - - - - - -
02.08.2020 18:00:00 - - - - - - -
02.08.2020 17:00:00 27,4 25,4 15 8 W 1011,2 20
02.08.2020 16:00:00 - - - - - - -
02.08.2020 15:00:00 - - - - - - -
02.08.2020 14:00:00 27,4 25,0 13 7 WSW 1011,7 20
02.08.2020 13:00:00 - - - - - - -
02.08.2020 12:00:00 - - - - - - -
02.08.2020 11:00:00 26,2 24,8 9 5 W 1011,8 25
02.08.2020 10:00:00 - - - - - - -
02.08.2020 09:00:00 - - - - - - -
02.08.2020 08:00:00 24,2 22,5 5 3 NNW 1011,1 25
02.08.2020 07:00:00 - - - - - - -
02.08.2020 06:00:00 - - - - - - -
02.08.2020 05:00:00 - - - - - - -
02.08.2020 04:00:00 - - - - - - -
02.08.2020 03:00:00 - - - - - - -
02.08.2020 02:00:00 - - - - - - -
02.08.2020 01:00:00 - - - - - - -
02.08.2020 00:00:00 - - - - - - -
01.08.2020 23:00:00 - - - - - - -
01.08.2020 22:00:00 - - - - - - -
01.08.2020 21:00:00 - - - - - - -
01.08.2020 20:00:00 27,4 22,8 13 7 NW 1012,3 25
01.08.2020 19:00:00 - - - - - - -
01.08.2020 18:00:00 - - - - - - -
01.08.2020 17:00:00 30,6 17,0 13 7 WNW 1012,6 25
01.08.2020 16:00:00 - - - - - - -
01.08.2020 15:00:00 - - - - - - -
01.08.2020 14:00:00 32,6 16,4 8 4 W 1013,3 25
01.08.2020 13:00:00 - - - - - - -
01.08.2020 12:00:00 - - - - - - -
01.08.2020 11:00:00 30,4 20,9 5 3 ENE 1014,1 25
01.08.2020 10:00:00 - - - - - - -
01.08.2020 09:00:00 - - - - - - -
01.08.2020 08:00:00 24,6 21,5 8 4 ENE 1014,3 25
01.08.2020 07:00:00 - - - - - - -
01.08.2020 06:00:00 - - - - - - -
01.08.2020 05:00:00 - - - - - - -
01.08.2020 04:00:00 - - - - - - -
01.08.2020 03:00:00 - - - - - - -

tt = temperature
td = dewpoint
ff = wind speed
dd = wind direction
ppp = reduced air pressure
vv = visibility

Next stations